Voltar ao catálogo

STARLINK-37951

AtivoComunicaçõesSSO
NORAD 69684·PAYLOAD·🇺🇸 United States

Lançado Jun 25, 2026 de Vandenberg Space Force Base

Loading…

Próximas Passagens (próximas 24 horas)

TLE

AtualizadoSource: CelesTrak SupGP

Época: Sep 15, 2026, 04:02 UTC

1 69684C 26145H   26258.16854167 -.00103730  00000+0 -69771-3 0  2588
2 69684  97.2841 108.0612 0001361  96.6482 226.4925 15.75216221    13

Acompanhe STARLINK-37951 em tempo real com AllMySat

Download on the App Store